[Date Prev][Date Next][Thread Prev][Thread Next] - [Date Index][Thread Index][Author Index]
2 Line ISS Keps 1-18
- Subject: [sarex] 2 Line ISS Keps 1-18
- From: "Dave Larsen PhD" <doc@xxxxxxxxxxx>
- Date: Fri, 18 Jan 2002 02:56:28 -0800
ISS
1 25544U 98067A 02018.19780130 .00056968 00000-0 76056-3 0 9722
2 25544 51.6402 86.8371 0007245 321.1482 90.2017 15.57487659180636
----
Via the sarex mailing list at AMSAT.ORG courtesy of AMSAT-NA.
To unsubscribe, send "unsubscribe sarex" to Majordomo@amsat.org
AMSAT Home